Location: Unspecified
(0.0000°N, 0.0000°E)
Time: 17:29:29
(UTC+00:00)

deb Delta 126 - Pass Details

Date: 19 February 2026
Orbit: 1485 x 1545 km, 102.1° (Epoch: 6 March)

Event Time Altitude Azimuth Distance (km) Brightness Sun altitude
Rises 03:18:49 0° 15° (NNE) 4,662 ? -42.7°
Enters shadow 03:21:21 - 16° (NNE) 3,775 ? -42.1°
Exits shadow 03:37:20 17° 197° (SSW) 3,133 ? -38.2°
Drops below altitude 10° 03:38:50 10° 197° (SSW) 3,643 ? -37.9°
Sets 03:41:37 0° 197° (SSW) 4,620 ? -37.2°
